To NAV CANADA Home Page Login to a new session Search on AWWS site Feedback and Comments Disclaimer Vers la page française équivalente Tips FAQ What's new on the site To the Forecasts and Observations / NOTAM section To "File a Flight Plan" website Publications and other links Update of the User's profile FIC Telephone Numbers My Weather Data Folder Route Weather Data Regional Weather Data Local Weather Data To the Forecasts and Observations / NOTAM section
Request Generated 04/25/2015 at 15:55:44 UTC . Weather information available at that time is displayed.

METAR/TAF

WHALE COVE/NU    

LWIS CYXN 251500Z AUTO 26005KT M07/M10 A3029=
LWIS CYXN 251400Z AUTO 24005KT M08/M10 A3028=
LWIS CYXN 251300Z AUTO 25004KT M07/M09 A3027=

CYXN - No TAF is issued for this station

Your time UTC time
Weather data provided by Environment Canada and NAV CANADA